Location: Newark
(7.1028°S, 35.3258°W)
Time: 11:49:40
(UTC+00:00)

Vanguard 3 - Pass Details

Date: 04 March 2020
Orbit: 508 x 3263 km, 33.4° (Epoch: 05 April)

Event Time Altitude Azimuth Distance (km) Brightness Sun altitude
Rises 00:05:15 0° 235° (SW) 7,236 12.6 -50.8°
Reaches altitude 10° 00:11:36 10° 224° (SW) 6,125 12.0 -52.3°
Enters shadow 00:26:34 29° 171° (S) 4,029 10.5 -55.7°
